Cork, Ireland

4:10 PM IST on October 01, 2016 (GMT +0100)
Cork

Weather History for EICK - February, 2013

Change the Weather History Date:

Friday, February 1, 2013

  Actual Average Record
Temperature  
Mean Temperature 40 °F -  
Max Temperature 45 °F 46 °F 51 °F (2000)
Min Temperature 35 °F 38 °F 30 °F (2012)
Degree Days  
Heating Degree Days 25    
Moisture  
Dew Point 38 °F    
Average Humidity 88    
Maximum Humidity 100    
Minimum Humidity 76    
Precipitation  
Precipitation 0.02 in - - ()
Sea Level Pressure  
Sea Level Pressure 29.71 in    
Wind  
Wind Speed 12 mph ()    
Max Wind Speed 29 mph    
Max Gust Speed 41 mph    
Visibility 6.8 miles    
Events Rain    
Averages and records for this station are not official NWS values.
T = Trace of Precipitation, MM = Missing Value Source: Averaged Metar Reports

Daily Weather History Graph

Daily Weather History Graph

Search for Another Location

Airport or City:

Trip Planner

Search our weather history database for the weather conditions in past years. The results will help you decide how hot, cold, wet, or windy it might be!

Date:

Astronomy

Feb. 01, 2013 Rise Set
Actual Time 8:13 AM GMT 5:22 PM GMT
Civil Twilight 7:36 AM GMT 5:59 PM GMT
Nautical Twilight 6:56 AM GMT 6:39 PM GMT
Astronomical Twilight 6:16 AM GMT 7:18 PM GMT
Moon No Moon Rise 9:51 AM GMT
Length of Visible Light 10h 22m
Length of Day
9h 09m
Waning Gibbous, 72% of the Moon is Illuminated
Feb 1
Waning Gibbous
Feb 3
Last Quarter
Feb 10
New
Feb 17
First Quarter
Feb 25
Full

Hourly Weather History & Observations

Time (GMT) Temp. Windchill Dew Point Humidity Pressure Visibility Wind Dir Wind Speed Gust Speed Precip Events Conditions
12:00 AM 41 °F - 39 °F 88% 29.81 in 11 mi WSW 8.9 mph - - Rain Light Rain
12:00 AM 41.0 °F 35.8 °F 39.2 °F 93% 29.77 in 6.2 mi WSW 8.1 mph - N/A Rain Light Rain
12:30 AM 41.0 °F 36.4 °F 39.2 °F 93% 29.77 in 6.2 mi West 6.9 mph - N/A Rain Light Rain
1:00 AM 39.2 °F 35.0 °F 39.2 °F 100% 29.77 in 6.2 mi WSW 5.8 mph - N/A   Mostly Cloudy
1:30 AM 39.2 °F 35.0 °F 39.2 °F 100% 29.74 in 6.2 mi SW 5.8 mph - N/A Rain Light Rain
2:00 AM 39.2 °F 33.6 °F 39.2 °F 100% 29.74 in 6.2 mi WNW 8.1 mph - N/A Rain Light Rain
2:30 AM 39.2 °F 33.6 °F 37.4 °F 93% 29.74 in 6.2 mi West 8.1 mph - N/A Rain Light Rain
3:00 AM 39.2 °F 34.2 °F 37.4 °F 93% 29.71 in 6.2 mi West 6.9 mph - N/A Rain Light Rain
3:30 AM 37.4 °F 32.8 °F 37.4 °F 100% 29.68 in 6.2 mi WSW 5.8 mph - N/A   Partly Cloudy
4:00 AM 37.4 °F 32.1 °F 35.6 °F 93% 29.68 in 6.2 mi WSW 6.9 mph - N/A   Partly Cloudy
5:00 AM 35.6 °F 28.6 °F 35.6 °F 100% 29.65 in - SW 9.2 mph - N/A   Clear
5:30 AM 35.6 °F 28.6 °F 35.6 °F 100% 29.65 in - WSW 9.2 mph - N/A   Clear
6:00 AM 35 °F - 35 °F 100% 29.69 in 19 mi WSW 8.9 mph - -   Partly Cloudy
6:00 AM 35.6 °F 28.6 °F 35.6 °F 100% 29.65 in - WSW 9.2 mph - N/A   Clear
6:30 AM 37.4 °F 30.3 °F 35.6 °F 93% 29.65 in - West 10.4 mph - N/A   Clear
7:00 AM 37.4 °F 29.8 °F 35.6 °F 93% 29.65 in - WNW 11.5 mph - N/A   Clear
7:30 AM 37.4 °F 30.3 °F 35.6 °F 93% 29.65 in - West 10.4 mph - N/A   Clear
8:00 AM 37.4 °F 29.8 °F 35.6 °F 93% 29.62 in 6.2 mi West 11.5 mph - N/A   Mostly Cloudy
8:30 AM 37.4 °F 29.3 °F 35.6 °F 93% 29.62 in 6.2 mi West 12.7 mph - N/A   Scattered Clouds
9:00 AM 37.4 °F 28.9 °F 35.6 °F 93% 29.62 in 6.2 mi West 13.8 mph - N/A   Mostly Cloudy
9:30 AM 39.2 °F 31.6 °F 35.6 °F 87% 29.62 in 6.2 mi West 12.7 mph - N/A   Mostly Cloudy
10:00 AM 41.0 °F 33.9 °F 35.6 °F 81% 29.62 in 6.2 mi West 12.7 mph - N/A   Scattered Clouds
10:30 AM 41.0 °F 33.1 °F 35.6 °F 81% 29.62 in 6.2 mi West 15.0 mph - N/A   Scattered Clouds
11:00 AM 42.8 °F 34.0 °F 37.4 °F 81% 29.62 in 6.2 mi West 20.7 mph - N/A   Scattered Clouds
11:30 AM 42.8 °F 34.3 °F 37.4 °F 81% 29.62 in 6.2 mi WNW 19.6 mph - N/A   Mostly Cloudy
12:00 PM 43 °F - 38 °F 76% 29.65 in 31 mi West 20.1 mph - -   Mostly Cloudy
12:00 PM 42.8 °F 34.3 °F 37.4 °F 81% 29.62 in 6.2 mi West 19.6 mph - N/A   Mostly Cloudy
12:30 PM 44.6 °F 37.4 °F 39.2 °F 81% 29.62 in 6.2 mi West 16.1 mph - N/A   Mostly Cloudy
1:00 PM 44.6 °F 36.4 °F 39.2 °F 81% 29.62 in 6.2 mi WNW 20.7 mph 41.4 mph N/A Rain Light Rain Showers
1:30 PM 44.6 °F 35.7 °F 39.2 °F 81% 29.62 in 6.2 mi NW 24.2 mph - N/A   Scattered Clouds
2:00 PM 44.6 °F 34.9 °F 37.4 °F 76% 29.62 in 6.2 mi NW 28.8 mph - N/A   Scattered Clouds
2:30 PM 44.6 °F 35.9 °F 39.2 °F 81% 29.62 in 6.2 mi NW 23.0 mph - N/A   Mostly Cloudy
3:00 PM 46.4 °F 38.7 °F 39.2 °F 76% 29.65 in 6.2 mi NW 20.7 mph - N/A   Mostly Cloudy
3:30 PM 44.6 °F 35.5 °F 39.2 °F 81% 29.65 in 6.2 mi NW 25.3 mph - N/A Rain Light Rain Showers
4:00 PM 42.8 °F 33.3 °F 39.2 °F 87% 29.68 in 6.2 mi NW 24.2 mph - N/A   Mostly Cloudy
4:30 PM 42.8 °F 34.0 °F 37.4 °F 81% 29.68 in 6.2 mi NW 20.7 mph - N/A   Mostly Cloudy
5:00 PM 42.8 °F 33.8 °F 37.4 °F 81% 29.68 in 6.2 mi NW 21.9 mph - N/A   Scattered Clouds
5:30 PM 42.8 °F 34.0 °F 37.4 °F 81% 29.71 in 6.2 mi NW 20.7 mph - N/A   Mostly Cloudy
6:00 PM 42 °F - 39 °F 83% 29.77 in 16 mi NW 22.4 mph - -   Partly Cloudy
6:00 PM 42.8 °F 33.5 °F 39.2 °F 87% 29.74 in 6.2 mi NW 23.0 mph - N/A   Mostly Cloudy
6:30 PM 42.8 °F 34.3 °F 39.2 °F 87% 29.77 in 6.2 mi NW 19.6 mph - N/A   Scattered Clouds
7:00 PM 42.8 °F 33.5 °F 39.2 °F 87% 29.77 in 6.2 mi NW 23.0 mph - N/A   Mostly Cloudy
7:30 PM 42.8 °F 34.0 °F 39.2 °F 87% 29.80 in 6.2 mi NW 20.7 mph - N/A   Mostly Cloudy
8:00 PM 42.8 °F 36.6 °F 39.2 °F 87% 29.83 in 6.2 mi NNW 11.5 mph - N/A   Partly Cloudy
8:30 PM 42.8 °F 36.6 °F 37.4 °F 81% 29.83 in 6.2 mi NW 11.5 mph - N/A   Mostly Cloudy
9:00 PM 41.0 °F 34.7 °F 37.4 °F 87% 29.86 in 6.2 mi NNW 10.4 mph - N/A   Partly Cloudy
9:30 PM 41.0 °F 34.3 °F 37.4 °F 87% 29.86 in 6.2 mi NW 11.5 mph - N/A   Partly Cloudy
10:00 PM 41.0 °F 32.8 °F 37.4 °F 87% 29.89 in 6.2 mi NW 16.1 mph - N/A   Partly Cloudy
10:30 PM 41.0 °F 33.5 °F 37.4 °F 87% 29.92 in 6.2 mi NW 13.8 mph - N/A   Partly Cloudy
11:00 PM 41.0 °F 35.2 °F 37.4 °F 87% 29.92 in 6.2 mi NW 9.2 mph - N/A   Scattered Clouds
11:30 PM 41.0 °F 34.7 °F 37.4 °F 87% 29.95 in 6.2 mi NW 10.4 mph - N/A   Partly Cloudy